DW3072 Weather Reports


time (UTC)temp
C
wind
direction
speed
KPH
gust
KPH
rain 1hr
cm
rain 24hr
cm
rain mn
cm
humidity
%
barometer
mb
20260510082047 10 40 0.0 0.0 0.00 0.58 0.00 95 1009.8
20260510080546 10 40 0.0 0.0 0.00 0.58 0.00 95 1010.1
20260510075041 10 40 0.0 0.0 0.00 0.58 0.00 95 1010.2
20260510073534 10 40 0.0 0.0 0.00 0.58 0.00 95 1010.5
20260510072034 9 40 0.0 0.0 0.00 0.58 0.00 95 1010.7
20260510070541 9 40 0.0 0.0 0.00 0.58 0.00 95 1010.8
20260510065036 8 141 0.0 4.8 0.00 0.58 0.00 95 1010.8
20260510063553 8 19 0.0 0.0 0.00 0.58 0.00 95 1010.1
20260510062047 8 19 0.0 0.0 0.00 0.58 0.00 94 1010.1
20260510060541 9 19 0.0 0.0 0.00 0.58 0.00 94 1010.4
20260510055053 9 19 0.0 0.0 0.00 0.58 0.00 94 1010.4
20260510053552 10 19 1.6 3.2 0.00 0.58 0.00 94 1010.3
20260510052049 10 52 0.0 0.0 0.00 0.58 0.00 94 1010.3
20260510050545 10 49 0.0 0.0 0.00 0.58 0.00 94 1010.1
20260510045113 10 49 0.0 0.0 0.00 0.58 0.00 94 1009.9
20260510043550 11 49 0.0 0.0 0.00 0.58 0.00 94 1010.0
20260510042045 11 49 0.0 3.2 0.00 0.58 0.00 94 1009.9
20260510040547 11 259 0.0 4.8 0.00 0.58 0.00 95 1010.0
20260510035031 11 302 0.0 3.2 0.00 0.61 0.58 95 1009.9
20260510033530 11 277 0.0 4.8 0.00 0.61 0.58 95 1009.8
20260510032043 12 272 1.6 3.2 0.00 0.61 0.58 95 1009.6
20260510030545 12 257 1.6 4.8 0.00 0.61 0.58 95 1009.7
20260510025054 11 281 0.0 4.8 0.00 0.61 0.58 95 1009.8
20260510023542 11 317 3.2 9.7 0.00 0.61 0.58 95 1009.5
20260510022041 11 269 3.2 8.0 0.00 0.61 0.58 95 1009.6
20260510020541 11 237 0.0 1.6 0.00 0.61 0.58 95 1009.4
20260510015100 10 276 0.0 3.2 0.00 0.61 0.58 93 1009.6
20260510013537 10 276 0.0 0.0 0.00 0.61 0.58 92 1009.5
20260510012053 10 276 0.0 0.0 0.00 0.61 0.58 91 1009.2
20260510010603 11 276 0.0 0.0 0.00 0.61 0.58 90 1009.2
20260510005054 11 276 0.0 0.0 0.00 0.61 0.58 90 1009.2
20260510003553 12 276 0.0 0.0 0.00 0.61 0.58 90 1009.0
20260510002053 12 276 0.0 0.0 0.00 0.61 0.58 90 1008.7
20260510000543 12 276 0.0 0.0 0.00 0.61 0.58 89 1008.7
20260509235057 13 276 0.0 3.2 0.00 0.61 0.58 88 1008.6
20260509233532 13 355 0.0 0.0 0.00 0.61 0.58 87 1008.4
20260509232029 13 355 0.0 4.8 0.00 0.61 0.58 87 1008.4
20260509230532 14 224 0.0 8.0 0.00 0.61 0.58 88 1008.3
20260509225102 13 201 0.0 3.2 0.00 0.61 0.58 88 1008.4
20260509223542 13 190 0.0 0.0 0.00 0.61 0.58 86 1008.3
20260509222037 14 278 4.8 8.0 0.00 0.61 0.58 85 1008.5
20260509220602 14 305 1.6 9.7 0.00 0.61 0.58 87 1008.4
20260509215033 14 263 1.6 4.8 0.00 0.61 0.58 88 1008.4
20260509213532 13 51 0.0 3.2 0.00 0.61 0.58 88 1008.6
20260509212044 13 247 1.6 6.4 0.00 0.61 0.58 88 1008.7
20260509210545 13 299 0.0 4.8 0.00 0.61 0.58 90 1008.8
20260509205037 13 45 1.6 6.4 0.00 0.61 0.58 90 1009.0
20260509203554 13 259 0.0 4.8 0.00 0.61 0.58 92 1009.1
20260509202051 12 258 0.0 4.8 0.03 0.61 0.58 92 1009.1
20260509200532 12 293 0.0 3.2 0.08 0.61 0.58 92 1008.9
20260509195045 12 280 1.6 3.2 0.15 0.61 0.58 92 1009.2
20260509193541 12 282 0.0 0.0 0.15 0.61 0.58 91 1009.5
20260509192036 12 309 0.0 0.0 0.15 0.58 0.56 90 1009.9
20260509190533 12 307 0.0 3.2 0.10 0.51 0.48 90 1010.2
20260509185028 12 57 0.0 3.2 0.10 0.46 0.43 90 1010.4
20260509183526 12 237 0.0 4.8 0.18 0.43 0.41 90 1010.5
20260509182028 12 320 0.0 3.2 0.25 0.43 0.41 90 1010.4
20260509180527 12 301 0.0 4.8 0.28 0.38 0.36 90 1010.4
20260509175035 13 276 0.0 3.2 0.25 0.33 0.30 89 1010.4
20260509173533 13 195 0.0 3.2 0.20 0.25 0.23 88 1010.4
20260509172035 13 230 0.0 3.2 0.13 0.18 0.15 88 1010.6
20260509170535 13 273 3.2 8.0 0.05 0.10 0.08 87 1010.5
20260509165027 14 311 1.6 4.8 0.03 0.08 0.05 85 1010.5
20260509163555 14 89 1.6 8.0 0.00 0.05 0.03 83 1010.5
20260509162050 14 283 4.8 8.0 0.00 0.05 0.03 83 1010.3
20260509160538 13 218 1.6 6.4 0.00 0.05 0.03 85 1010.5
20260509155032 13 273 1.6 6.4 0.00 0.05 0.03 86 1010.7
20260509153529 13 278 3.2 6.4 0.03 0.05 0.03 87 1010.7
20260509152030 13 288 0.0 3.2 0.03 0.05 0.03 86 1010.5
20260509150558 13 266 1.6 4.8 0.03 0.05 0.03 85 1010.5
20260509145029 12 286 0.0 3.2 0.00 0.03 0.00 85 1010.7
20260509143547 12 307 3.2 6.4 0.00 0.03 0.00 86 1010.8
20260509142046 12 269 0.0 4.8 0.00 0.03 0.00 88 1010.7
20260509140552 12 261 1.6 3.2 0.00 0.03 0.00 88 1010.5
20260509135027 12 292 1.6 3.2 0.00 0.03 0.00 87 1010.5
20260509133533 11 187 0.0 0.0 0.00 0.03 0.00 87 1010.4
20260509132032 11 221 0.0 0.0 0.00 0.03 0.00 88 1010.4
20260509130533 11 230 0.0 0.0 0.00 0.03 0.00 87 1010.4
20260509125105 11 226 0.0 0.0 0.00 0.03 0.00 88 1010.5
20260509123557 10 226 0.0 0.0 0.00 0.03 0.00 88 1010.8
20260509122032 10 188 0.0 1.6 0.00 0.03 0.00 88 1010.9
20260509120529 10 206 0.0 3.2 0.00 0.03 0.00 89 1011.0
20260509115037 10 306 0.0 3.2 0.00 0.03 0.00 90 1010.7
20260509113555 10 189 0.0 1.6 0.00 0.03 0.00 90 1010.6
20260509112032 10 189 0.0 1.6 0.00 0.03 0.00 91 1010.6
20260509110533 9 210 0.0 0.0 0.00 0.03 0.00 91 1010.2
20260509105028 9 210 0.0 0.0 0.00 0.03 0.00 90 1010.4
20260509103529 9 210 0.0 0.0 0.00 0.03 0.00 91 1010.4
20260509102046 9 210 0.0 0.0 0.00 0.03 0.00 90 1010.5
20260509100545 9 205 0.0 0.0 0.00 0.03 0.00 90 1010.6
20260509095042 9 205 0.0 0.0 0.00 0.03 0.00 90 1010.6
20260509093541 9 205 0.0 0.0 0.00 0.03 0.00 89 1010.6
20260509092041 9 205 0.0 0.0 0.00 0.03 0.00 89 1010.5
20260509090537 9 205 0.0 0.0 0.00 0.03 0.00 89 1010.6
20260509085033 9 205 0.0 0.0 0.00 0.03 0.00 89 1010.8
20260509083528 9 205 0.0 0.0 0.00 0.03 0.00 89 1011.0